Home > Time Zones > World Clock > Weather > China > Hefei > Past weeks

Flag for China Weather past 2 weeks in Hefei, Anhui, China

Now
70 °F

Fog.


Feels Like: 70 °F
Forecast: 62 / 68 °F
Wind: 3 mph from Northeast

Location: Hefei Airport

Current Time: Jul 6, 2015 at 1:54:28 AM

Latest Report: Jul 6, 2015 at 1:00 AM


Visibility: 3 mi

Pressure: 29.83 "Hg

Humidity: 88%

Dew point: 66 °F

Location of HefeiLocation

Historic Weather in Hefei — Graph

°F

Hefei temperature yesterday

Maximum temperature yesterday: 81 °F (at 12:00 PM)
Minimum temperature yesterday: 68 °F (at 5:00 AM)
Average temperature yesterday: 74 °F

Past Weeks' High & Low Weather Summary

 TemperatureHumidityPressure
High90 °F (Jun 29, 3:00 PM)100% (Jun 22, 5:00 AM)29.83 "Hg (Jun 22, 5:00 AM)
Low68 °F (Jun 22, 5:00 AM)55% (Jul 2, 4:00 PM)29.50 "Hg (Jun 25, 3:00 AM)
Average76 °F88%29.66 "Hg
* Reported Jun 21 1:00 AM — Jul 6 1:00 AM, Hefei, Weather by CustomWeather, © 2015

Note: Actual official high and low records may vary slightly from our data, if they occured in-between our weather recording intervals... More about our weather records

Advertising

Hefei weather history for previous 24 hours

 ConditionsComfort  
Time TempWeatherWind HumidityBarometerVisibility
1:00 AM
Mon, Jul 6
70 °FFog.3 mph88%29.83 "Hg3 mi
12:00 AM72 °FClear.3 mph83%29.83 "Hg4 mi
11:00 PM
Sun, Jul 5
72 °FClear.3 mph83%29.83 "Hg4 mi
10:00 PM73 °FClear.1 mph83%29.83 "Hg4 mi
9:00 PM73 °FClear.3 mph74%29.80 "Hg6 mi
8:00 PM73 °FClear.6 mph78%29.77 "Hg5 mi
7:00 PM75 °FSunny.6 mph74%29.77 "Hg10 mi
6:00 PM77 °FSunny.6 mph65%29.77 "Hg10 mi
5:00 PM77 °FSunny.8 mph65%29.77 "Hg10 mi
4:00 PM79 °FSunny.8 mph61%29.77 "Hg10 mi
3:00 PM81 °FPassing clouds.10 mph58%29.80 "HgN/A
2:00 PM81 °FSunny.8 mph58%29.80 "Hg10 mi
1:00 PM81 °FPassing clouds.8 mph58%29.80 "HgN/A
12:00 PM81 °FPassing clouds.8 mph62%29.80 "HgN/A
11:00 AM79 °FClear.6 mph65%29.83 "Hg5 mi
10:00 AM77 °FClear.6 mph69%29.80 "Hg5 mi
9:00 AM75 °FClear.8 mph78%29.80 "Hg4 mi
8:00 AM72 °FFog.8 mph83%29.80 "Hg3 mi
7:00 AM72 °FFog.8 mph88%29.83 "Hg2 mi
6:00 AM68 °FFog.3 mph100%29.80 "Hg1 mi
5:00 AM68 °FFog.3 mph100%29.80 "Hg1 mi
4:00 AM70 °FFog.3 mph88%29.80 "Hg2 mi
3:00 AM70 °FFog.3 mph88%29.80 "Hg2 mi
2:00 AM70 °FFog.3 mph88%29.80 "Hg3 mi
1:00 AM70 °FFog.3 mph88%29.80 "Hg3 mi
Weather by CustomWeather, © 2015

See weather overviewHow to use our weather pages